Weather History for KEYW - February, 2012

Change the Weather History Date:

Saturday, February 4, 2012

  Actual Average Record
Temperature  
Mean Temperature 75 °F 70 °F  
Max Temperature 79 °F 75 °F 85 °F (1957)
Min Temperature 71 °F 65 °F 46 °F (1958)
Degree Days  
Heating Degree Days 0 1  
Month to date heating degree days 0 4  
Since 1 July heating degree days 23 55  
Cooling Degree Days 10 6  
Month to date cooling degree days 43 24  
Year to date cooling degree days 251 189  
Growing Degree Days 26 (Base 50)    
Moisture  
Dew Point 67 °F    
Average Humidity 79    
Maximum Humidity 90    
Minimum Humidity 67    
Precipitation  
Precipitation T in 0.06 in 1.56 in (1921)
Month to date precipitation T 0.23  
Year to date precipitation 0.78 2.27  
Snow  
Snow 0.00 in - - ()
Month to date snowfall 0.0  
Since 1 July snowfall 0.0  
Snow Depth 0.00 in    
Sea Level Pressure  
Sea Level Pressure 30.07 in    
Wind  
Wind Speed 15 mph (East)    
Max Wind Speed 23 mph    
Max Gust Speed 29 mph    
Visibility 10 miles    
Events      
T = Trace of Precipitation, MM = Missing Value Source: NWS Daily Summary

Daily Weather History Graph

Daily Weather History Graph

Search for Another Location

Airport or City:

Trip Planner

Search our weather history database for the weather conditions in past years. The results will help you decide how hot, cold, wet, or windy it might be!

Date:

Astronomy

Feb. 04, 2012 Rise Set
Actual Time 7:07 AM EST 6:14 PM EST
Civil Twilight 6:44 AM EST 6:38 PM EST
Nautical Twilight 6:16 AM EST 7:05 PM EST
Astronomical Twilight 5:50 AM EST 7:32 PM EST
Moon 3:21 PM EST 4:20 AM EST
Length of Visible Light 11h 53m
Length of Day
11h 06m
Waxing Gibbous, 89% of the Moon is Illuminated
Feb 4
Waxing Gibbous
Feb 7
Full
Feb 14
Last Quarter
Feb 21
New
Feb 29
First Quarter

Hourly Weather History & Observations

Time (EST) Temp. Dew Point Humidity Pressure Visibility Wind Dir Wind Speed Gust Speed Precip Events Conditions
12:53 AM 72.0 °F 68.0 °F 87% 30.10 in 10.0 mi ENE 9.2 mph 16.1 mph 0.00 in   Mostly Cloudy
1:53 AM 73.9 °F 68.0 °F 82% 30.10 in 10.0 mi East 11.5 mph - N/A   Mostly Cloudy
2:23 AM 73.4 °F 68.0 °F 83% 30.09 in 10.0 mi ENE 10.4 mph 17.3 mph N/A   Mostly Cloudy
2:53 AM 73.0 °F 68.0 °F 84% 30.09 in 10.0 mi ENE 8.1 mph - N/A   Mostly Cloudy
3:05 AM 73.4 °F 68.0 °F 83% 30.08 in 10.0 mi ENE 9.2 mph - N/A   Scattered Clouds
3:53 AM 73.0 °F 68.0 °F 84% 30.08 in 10.0 mi ENE 8.1 mph - N/A   Overcast
4:53 AM 73.9 °F 68.0 °F 82% 30.06 in 10.0 mi East 13.8 mph 23.0 mph N/A   Overcast
5:53 AM 73.9 °F 68.0 °F 82% 30.07 in 10.0 mi East 15.0 mph 24.2 mph N/A   Overcast
6:53 AM 73.9 °F 68.0 °F 82% 30.08 in 10.0 mi East 16.1 mph 24.2 mph 0.00 in   Overcast
7:53 AM 75.0 °F 68.0 °F 79% 30.10 in 10.0 mi East 15.0 mph 23.0 mph N/A   Overcast
8:53 AM 75.0 °F 68.0 °F 79% 30.10 in 10.0 mi East 15.0 mph 26.5 mph N/A   Overcast
9:53 AM 75.9 °F 69.1 °F 79% 30.12 in 10.0 mi East 19.6 mph 25.3 mph N/A   Mostly Cloudy
10:53 AM 77.0 °F 68.0 °F 74% 30.12 in 10.0 mi East 19.6 mph 25.3 mph N/A   Scattered Clouds
11:53 AM 79.0 °F 68.0 °F 69% 30.11 in 10.0 mi East 18.4 mph 26.5 mph N/A   Partly Cloudy
12:53 PM 77.0 °F 68.0 °F 74% 30.09 in 10.0 mi East 18.4 mph 26.5 mph N/A   Partly Cloudy
1:53 PM 79.0 °F 68.0 °F 69% 30.06 in 10.0 mi East 16.1 mph 25.3 mph N/A   Clear
2:53 PM 78.1 °F 66.0 °F 66% 30.04 in 10.0 mi East 17.3 mph 24.2 mph N/A   Clear
3:53 PM 78.1 °F 66.0 °F 66% 30.03 in 10.0 mi East 17.3 mph 24.2 mph N/A   Clear
4:53 PM 75.9 °F 64.9 °F 69% 30.03 in 10.0 mi East 16.1 mph - N/A   Clear
5:53 PM 75.0 °F 66.0 °F 73% 30.04 in 10.0 mi East 15.0 mph - N/A   Partly Cloudy
6:53 PM 75.0 °F 66.0 °F 73% 30.04 in 10.0 mi East 12.7 mph 20.7 mph N/A   Overcast
7:53 PM 75.0 °F 66.9 °F 76% 30.04 in 10.0 mi East 13.8 mph 23.0 mph N/A   Unknown
8:53 PM 75.0 °F 66.9 °F 76% 30.05 in 10.0 mi East 12.7 mph - N/A   Clear
9:53 PM 75.0 °F 66.0 °F 73% 30.05 in 10.0 mi East 13.8 mph 19.6 mph N/A   Clear
10:53 PM 75.0 °F 66.9 °F 76% 30.05 in 10.0 mi East 15.0 mph 20.7 mph N/A   Clear
11:53 PM 75.0 °F 68.0 °F 79% 30.04 in 10.0 mi ESE 11.5 mph - N/A   Clear